Location: Mascot Post Office (historical)
(40.2645°N, 99.5462°W)
Time: 02:45:33
(UTC+00:00)

Meteor 1-23 Rocket - Pass Details

Date: 14 July 2020
Orbit: 838 x 887 km, 81.3° (Epoch: 14 August)

Event Time Altitude Azimuth Distance (km) Brightness Sun altitude
Rises 09:16:11 0° 350° (N) 3,464 8.0 -18.7°
Reaches altitude 10° 09:18:37 10° 351° (N) 2,529 7.3 -18.5°
Maximum altitude 09:24:24 88° 80° (E) 886 4.3 -17.8°
Enters shadow 09:29:36 13° 171° (S) 2,314 6.1 -17.2°
